Regional Weather Roundup
Issued by NWS

Home | Current Version | Previous Version | Text Only | Print | Product List | Glossary On
Versions: 1 2 3 4 5 6 7 8 9 10 11 12 13 14 15 16 17 18 19 20 21 22 23 24 25 26 27 28 29 30 31 32 33 34 35 36 37 38 39 40 41 42 43 44 45 46 47 48 49 50
000
ASHW40 PHFO 052043
RWRHI

WEATHER ROUNDUP FOR HAWAII
NATIONAL WEATHER SERVICE HONOLULU HI
1000 AM HST FRI MAR 05 2021

THIS IS AN AUTOMATED REPORT THAT HAS NOT BEEN QUALITY CONTROLLED.

NOTE..."FAIR" INDICATES FEW OR NO CLOUDS BELOW 12,000 FEET WITH NO
SIGNIFICANT WEATHER AND/OR OBSTRUCTIONS TO VISIBILITY.

* - THESE SITES REPORT LIMITED FIELDS
# - BUOY DATA PROVIDED BY PACIFIC ISLANDS OCEAN OBSERVING SYSTEM.

HIZ001>004-052100-
KAUAI-NIIHAU-

CITY           SKY/WX    TMP DP  RH WIND       PRES   REMARKS
LIHUE APT      PTSUNNY   72  63  73 NE22G31   30.16S
PORT ALLEN*      N/A     75 N/A N/A E16G29      N/A
POIPU*         NOT AVBL
PRINCEVILLE*     N/A     70 N/A N/A E10G21      N/A
KOKOLE POINT*  NOT AVBL
MOLOAA DAIRY*    N/A     72  63  73 E2G10       N/A
WAIMEA HTS*      N/A     77  66  69 W5G13       N/A
PUU OPAE*        N/A     66  61  82 S5G10       N/A
PUU LUA*       NOT AVBL
MAKAHA RIDGE*    N/A     66  61  82 NE3G12      N/A
$$

HIZ005>011-052100-
OAHU-

CITY           SKY/WX    TMP DP  RH WIND       PRES   REMARKS
HONOLULU       LGT RAIN  72  62  71 E10       30.12S
KALAELOA       PTSUNNY   73  63  70 VRB3      30.13R
KANEOHE MCB    LGT RAIN  68  62  81 MISG      30.11R
WHEELER FIELD  LGT RAIN  66  64  94 NE3       30.14S
BELLOWS*         N/A     72 N/A N/A NE17G26     N/A
KAHUKU*          N/A     70 N/A N/A NE7G16      N/A
WHEELER*         N/A     70 N/A N/A NE6         N/A
WAIANAE HARBOR   N/A     77 N/A N/A E6G12       N/A
DILLINGHAM*      N/A     70  66  88 SE1G7       N/A
KAHUKU TRN*      N/A     66  63  88 NE9G22      N/A
KAWAILOA*      NOT AVBL
KII*             N/A     72  64  78 NE18G26     N/A
MAKUA RANGE*     N/A     70  64  83 NE7G15      N/A
OAHU FOREST NW NOT AVBL
SCHOFIELD BRK*   N/A     68  63  83 NE3         N/A
SCHOFIELD S*   NOT AVBL
WAIANAE VLY*     N/A     66  61  82 S3G14       N/A
KUAOKALA*        N/A     66  63  88 CALM        N/A
HONOULIUULI*   NOT AVBL
MOKUOLOE IS*     N/A     70 N/A N/A SE9G15      N/A
PALEHUA*       NOT AVBL
WAIAWA PHB*    NOT AVBL
$$

HIZ012>013-052100-
MOLOKAI-

CITY           SKY/WX    TMP DP  RH WIND       PRES   REMARKS
MOLOKAI AIRPT  PTSUNNY   71  61  70 NE10G16   30.12S
KALAUPAPA      NOT AVBL
MAKAPULAPAI*     N/A     73  63  68 E8G20       N/A
MOLOKAI 1*       N/A     64  57  77 NW2         N/A
PUU ALII*        N/A     54  54  99 N2G9        N/A
$$

HIZ016-052100-
KAHOOLAWE-

CITY           SKY/WX    TMP DP  RH WIND       PRES   REMARKS
KAHOOLAWE*     NOT AVBL
HAKIOAWA*      NOT AVBL
HONOKANAIA*    NOT AVBL
KANELOA*         N/A     72  61  68 E17G26    30.16R
KEALIALALO*    NOT AVBL
LUA MAKIKA*    NOT AVBL
$$

HIZ014>015-052100-
LANAI-

CITY           SKY/WX    TMP DP  RH WIND       PRES   REMARKS
LANAI CITY     PTSUNNY   70  64  83 S6        30.15R
LANAI 1*       NOT AVBL
$$

HIZ017>028-052100-
MAUI-

CITY           SKY/WX    TMP DP  RH WIND       PRES   REMARKS
KAHULUI        MOSUNNY   76  58  53 E15       30.10R
KAPALUA-W MAUI NOT AVBL
HANA AIRPORT   PTSUNNY   79  68  69 N7        30.15R
HANA*            N/A     73 N/A N/A E9          N/A
HALEAKALA SUMM   N/A     37  36  93 E21         N/A  VSB 0   WCI  27
MAALAEA BAY*     N/A     77 N/A N/A NE10G21     N/A
HALEAKALA*     NOT AVBL
KAUPO GAP*     NOT AVBL
KULA 1*          N/A     52  43  72 W3G9        N/A
$$

HIZ023>026-052100-
BIG ISLAND OF HAWAII COAST AND LOWER SLOPES-

CITY           SKY/WX    TMP DP  RH WIND       PRES   REMARKS
KAILUA KONA    CLOUDY    78  56  46 SW9       30.06F
HILO           CLOUDY    70  62  76 CALM      30.13S
HONOKAA*       NOT AVBL
KAWAIHAE MWT*  NOT AVBL
KAWAIHAE*        N/A     73 N/A N/A W9        30.06
SOUTH POINT*     N/A     70 N/A N/A E18G26      N/A
UPOLU AIRPORT* NOT AVBL
KAMUELA*       NOT AVBL
HAKALAU*         N/A     52  47  84 E3          N/A
KALOKO-HONOKO*   N/A     79  59  50 SW5       30.07S
PALI 2*          N/A     66  52  59 NE12G18     N/A
KEALAKOMO*       N/A     77  57  50 NE13G20     N/A
KAUPULEHU*       N/A     75  55  50 W12         N/A
KAPAPALA*        N/A     67  57  71 N5G10       N/A
LOWER KAHUKU*    N/A     61  54  77 NE3G13      N/A
PUHE CS*         N/A     75  61  60 W5G10       N/A
PUHO CS*         N/A     75  59  57 SW3         N/A
PTA KEAMUKU*   NOT AVBL
WAIKOLOA*        N/A     73  55  53 NE16G26     N/A
$$

HIZ027>028-052100-
BIG ISLAND OF HAWAII INTERIOR AND SUMMMITS-

CITY           SKY/WX    TMP DP  RH WIND       PRES   REMARKS
BRADSHAW FIELD PTSUNNY   57  44  63 SE15G22   30.31R
MK VISITOR CEN   N/A     43  36  75 S12         N/A
MAUNA KEA*       N/A     30   7  37 SW3         N/A
MAUNA LOA*     NOT AVBL
MAUNA LOA 1*   NOT AVBL
PTA KIPUKA*      N/A     61  45  55 SW5G12      N/A
PTA RANGE 17*    N/A     57  45  62 SE13G22     N/A
PTA WEST*        N/A     63  48  59 N8G16       N/A
NENE CABIN*      N/A     46  46 100 E8G17       N/A
AHUMOA*          N/A     56  41  58 N7G13       N/A
PTA PORTABLE*  NOT AVBL
PUU MALI*        N/A     54  45  71 NE18G26     N/A
$$

HIC003-052100-
NORTHWEST ISLANDS-

CITY           SKY/WX    TMP DP  RH WIND       PRES   REMARKS
MIDWAY ISLAND  CLOUDY    70  61  73 E21       30.34R
MIDWAY NOS*      N/A     70 N/A N/A MISG      30.34R
FRENCH FRIGATE NOT AVBL
$$

PHZ110>124-180-052100-
BUOY REPORTS

STATION/POSITION TIME  TEMP    WIND        PRES    WAVE   SWELL
                       AIR SEA DIR/SP/G            HT/PER HT/DIR
                 (UTC) (F)     (DEG/KT/KT) (MB)    (FT/S) (FT/D)
BUOY 51101       2020   70 74   60/ 19/ 25 1023.9
BUOY 51100       NOT AVBL
BUOY 51002       2020   75 76   80/ 16/ 19 1017.4
BUOY 51003       2020      77              1019.2
BUOY 51004       2020   73 75   80/ 14/ 17 1017.1
WAIMEA BAY#      NOT AVBL
MOKAPU POINT#    1956      76                N/A     8/15   5/360
LANAI#           1956      76                N/A     3/14   2/310
BARBERS PT#      1956      76                N/A     4/14   3/300
PAUWELA#         1956      76                N/A     9/13   7/340
HILO#            2013      75                N/A     8/15   7/350
KANEOHE BAY#     1956      75                N/A     9/ 8   5/360
KANEOHE BAY 2#   NOT AVBL
HANALEI#         NOT AVBL
KAHULUI HARBOR   2000   74 74   80/ 11/ 17 1019.5
HONOLULU HARBOR  2000   70 76  160/  2/  2 1020.4
PEARL HARBOR#    2000      76                N/A     2/ 6   2/170
KILO NALU        NOT AVBL
HILO HARBOR      2000   69 77  270/  3/  3 1019.1
MOKUOLOE         1936   71 73  110/ 14/ 18 1020.1S
NAWILIWILI       2000   70 80   40/ 13/ 18 1021.4
WHOTS BUOY       NOT AVBL
BUOY 51028       NOT AVBL
$$

......................KEY........................................
  SKY/WX - SKY CONDITIONS/PRESENT WEATHER
  TMP    - TEMPERATURE IN FAHRENHEIT
  DWPT   - DEWPOINT IN FAHRENHEIT
  RH     - RELATIVE HUMIDITY IN PERCENT
  WIND   - DIRECTION AND SPEED /MPH FOR ISLANDS...KTS FOR BUOYS/
  PRES   - MEAN SEA LEVEL PRESSURE IN INCHES OF HG
  VSB    - VISIBILITY IN MILES
  HX     - HEAT INDEX
  WCI    - WIND CHILL INDEX
  VRB    - VARIABLE WIND DIRECTION
  N/A    - NOT AVAILABLE



USA.gov is the U.S. government's official web portal to all federal, state and local government web resources and services.